Regional Weather Roundup
Issued by NWS State College, PA

Home | Current Version | Previous Version | Text Only | Print | Product List | Glossary On
Versions: 1 2 3 4 5 6 7 8 9 10 11 12 13 14 15 16 17 18 19 20 21 22 23 24 25 26 27 28 29 30 31 32 33 34 35 36 37 38 39 40 41 42 43 44 45 46 47 48 49 50
000
ASUS41 KCTP 270810
RWRCTP

REGIONAL WEATHER ROUNDUP
NATIONAL WEATHER SERVICE STATE COLLEGE PA
400 AM EDT WED JUL 27 2016

Note: "fair" indicates few or no clouds below 12,000 feet with no
significant weather and/or obstructions to visibility.

* = STATION THAT DOES NOT REPORT PRECIPITATION /E.G. RAIN...SNOW...ETC/
    THUNDER OR FOG.

PAZ002>004-007>009-013>016-020>023-029>032-270900-
WESTERN PENNSYLVANIA

CITY           SKY/WX    TMP DP  RH WIND       PRES   REMARKS
ERIE           CLEAR     65  59  81 S6        30.00S
MEADVILLE      CLEAR     60  56  86 CALM      30.03F
FRANKLIN*      CLEAR     57  54  88 CALM      30.05F
NEW CASTLE     FAIR      63  61  93 CALM      30.03F
BEAVER COUNTY  NOT AVBL
BUTLER*        CLOUDY    63  61  94 CALM      30.05F
PITTSBURGH INT CLOUDY    71  61  70 CALM      30.01F
PITTSBURGH     CLOUDY    73  58  59 CALM      30.01F
INDIANA*       CLOUDY    64  63  94 CALM      30.06F
LATROBE        CLOUDY    66  66 100 CALM      30.02F
WASHINGTON CO* CLOUDY    66  63  88 CALM      30.02F
$$

PAZ004>006-010>012-017>019-024>028-033>037-041-042-045-046-049>053-270900-
CENTRAL PENNSYLVANIA

CITY           SKY/WX    TMP DP  RH WIND       PRES   REMARKS
BRADFORD       CLEAR     52  50  93 CALM      30.05F
DUBOIS         CLEAR     60  56  86 CALM      30.04F
CLEARFIELD     CLEAR     59  56  89 N3        30.03F
JOHNSTOWN      CLOUDY    67  57  70 CALM      30.06F
ALTOONA        CLOUDY    64  59  83 CALM      30.03S
STATE COLLEGE  CLEAR     65  60  83 CALM      30.01F
WILLIAMSPORT   PTCLDY    66  61  84 CALM      29.97F
SELINSGROVE    MOCLDY    65  65 100 CALM      29.98S
FT INDIANTOWN  CLOUDY    74  62  65 VRB2      29.96R
CAPITAL CITY   CLOUDY    75  65  70 CALM      29.95S
HARRISBURG     CLOUDY    77  63  61 N3        29.94R
YORK           CLOUDY    73  66  78 CALM      29.95S
$$

PAZ038>040-043-044-047-048-054-055-060>062-067>071-270900-
EASTERN PENNSYLVANIA

CITY           SKY/WX    TMP DP  RH WIND       PRES   REMARKS
SCRANTON       CLEAR     65  60  84 VRB3      29.99S
MOUNT POCONO   CLEAR     59  56  89 CALM      30.02F
ALLENTOWN      PTCLDY    70  63  78 CALM      29.96S
QUAKERTOWN*    MOSUNNY   68  66  94 CALM      29.97S
READING        CLOUDY    74  65  73 N7        29.94S
LANCASTER      CLOUDY    73  67  81 NE7       29.95R
COATESVILLE    CLOUDY    75  68  78 CALM      29.97S
POTTSTOWN      MOCLDY    72  65  78 CALM      29.96S
BLUE BELL      CLOUDY    70  68  94 CALM      29.93S
DOYLESTOWN     PTCLDY    71  64  78 CALM      29.95S
WILLOW GROVE   NOT AVBL
NORTH PHILA    CLOUDY    77  66  68 NE6       29.95R
PHILADELPHIA   CLOUDY    79  66  64 NE5       29.93S
$$



USA.gov is the U.S. government's official web portal to all federal, state and local government web resources and services.